Weather History for North Island, CA

Change the Weather History Date:

Saturday, December 8, 2012

  Actual Average Record
Temperature  
Mean Temperature 62 °F -  
Max Temperature 66 °F 62 °F 75 °F (2001)
Min Temperature 57 °F 47 °F 39 °F (1998)
Degree Days  
Heating Degree Days 4    
Growing Degree Days 12 (Base 50)    
Moisture  
Dew Point 54 °F    
Average Humidity 78    
Maximum Humidity 88    
Minimum Humidity 63    
Precipitation  
Precipitation 0.00 in - - ()
Sea Level Pressure  
Sea Level Pressure 29.95 in    
Wind  
Wind Speed 2 mph (West)    
Max Wind Speed 7 mph    
Max Gust Speed -    
Visibility 4 miles    
Events      
Averages and records for this station are not official NWS values.
T = Trace of Precipitation, MM = Missing Value Source: NWS Daily Summary

Daily Weather History Graph

Daily Weather History Graph

Search for Another Location

Airport:

Trip Planner

Search our weather history database for the weather conditions in past years. The results will help you decide how hot, cold, wet, or windy it might be!

Date:

Astronomy

Dec. 08, 2012 Rise Set
Actual Time 6:39 AM PST 4:42 PM PST
Civil Twilight 6:12 AM PST 5:10 PM PST
Nautical Twilight 5:41 AM PST 5:40 PM PST
Astronomical Twilight 5:11 AM PST 6:10 PM PST
Moon 1:22 AM PST (12/8) 1:03 PM PST (12/8)
Length of Visible Light 10h 58m
Length of Day
10h 03m
Waning Crescent, 27% of the Moon is Illuminated
Dec 8
Waning Crescent
Dec 13
New
Dec 19
First Quarter
Dec 28
Full
Jan 4
Last Quarter

Hourly Weather History & Observations

Time (PST) Temp. Dew Point Humidity Pressure Visibility Wind Dir Wind Speed Gust Speed Precip Events Conditions
12:52 AM 60.1 °F 55.0 °F 83% 29.94 in 1.5 mi SE 4.6 mph - N/A   Overcast
1:52 AM 59.0 °F 55.0 °F 87% 29.94 in 1.0 mi Calm Calm - N/A   Overcast
2:52 AM 59.0 °F 55.0 °F 87% 29.94 in 0.8 mi Calm Calm - N/A   Overcast
3:52 AM 59.0 °F 55.0 °F 87% 29.93 in 0.8 mi Calm Calm - N/A   Overcast
4:28 AM 59.0 °F 55.4 °F 88% 29.93 in 1.5 mi East 3.5 mph - N/A   Overcast
4:52 AM 59.0 °F 55.0 °F 87% 29.93 in 1.5 mi Calm Calm - N/A   Overcast
5:52 AM 60.1 °F 55.0 °F 83% 29.94 in 3.0 mi South 3.5 mph - N/A   Overcast
6:52 AM 59.0 °F 54.0 °F 83% 29.96 in 3.0 mi Calm Calm - N/A   Overcast
7:52 AM 60.1 °F 53.1 °F 78% 29.97 in 2.5 mi Calm Calm - N/A   Overcast
8:52 AM 60.1 °F 53.1 °F 78% 29.99 in 2.5 mi South 3.5 mph - N/A   Overcast
8:59 AM 60.8 °F 53.6 °F 77% 29.99 in 2.5 mi Calm Calm - N/A   Overcast
9:52 AM 63.0 °F 54.0 °F 72% 29.99 in 3.0 mi Calm Calm - N/A   Haze
10:40 AM 64.4 °F 53.6 °F 68% 29.98 in 5.0 mi West 3.5 mph - N/A   Haze
10:52 AM 64.0 °F 53.1 °F 67% 29.97 in 5.0 mi Variable 3.5 mph - N/A   Haze
11:52 AM 66.0 °F 53.1 °F 63% 29.95 in 5.0 mi WNW 4.6 mph - N/A   Haze
12:52 PM 64.9 °F 53.1 °F 65% 29.93 in 5.0 mi WNW 5.8 mph - N/A   Haze
1:52 PM 64.9 °F 53.1 °F 65% 29.92 in 6.0 mi West 6.9 mph - N/A   Haze
2:52 PM 64.0 °F 53.1 °F 67% 29.91 in 6.0 mi WNW 4.6 mph - N/A   Haze
3:52 PM 63.0 °F 53.1 °F 70% 29.91 in 6.0 mi West 4.6 mph - N/A   Haze
4:52 PM 60.1 °F 52.0 °F 75% 29.91 in 5.0 mi West 4.6 mph - N/A   Haze
5:52 PM 59.0 °F 53.1 °F 81% 29.92 in 4.0 mi NW 3.5 mph - N/A   Scattered Clouds
6:52 PM 59.0 °F 53.1 °F 81% 29.94 in 4.0 mi NW 3.5 mph - N/A   Scattered Clouds
7:52 PM 57.9 °F 52.0 °F 81% 29.95 in 4.0 mi Calm Calm - N/A   Partly Cloudy
7:59 PM 57.2 °F 51.8 °F 82% 29.95 in 4.0 mi NNW 3.5 mph - N/A   Scattered Clouds
8:09 PM 59.0 °F 53.6 °F 82% 29.95 in 4.0 mi NW 4.6 mph - N/A   Mostly Cloudy
8:52 PM 57.9 °F 53.1 °F 84% 29.96 in 4.0 mi Calm Calm - N/A   Mostly Cloudy
9:52 PM 59.0 °F 53.1 °F 81% 29.96 in 4.0 mi Calm Calm - N/A   Mostly Cloudy
10:52 PM 59.0 °F 53.1 °F 81% 29.97 in 3.0 mi Calm Calm - N/A   Overcast
11:52 PM 59.0 °F 53.1 °F 81% 29.97 in 3.0 mi Calm Calm - N/A   Overcast